sat.trackr.live / text

‹ back to catalog

STARLINK-35679

NORAD 66408 · 2025-257AE

PAYLOAD ACTIVE UNKNOWN

§ Identity

Operator
Country
US
Launch date
2025-11-09
Launch site
AFETR
Launch vehicle
Mass (kg)
RCS (m²)

Purposes: comms

External: N2YO · Heavens-Above · Gunter

§ Orbital elements

Epoch: 2026-09-20T13:41:25.621152Z

Period
93.85 min
Inclination
53.1593°
Eccentricity
0.0000808
Mean motion
15.34413889 rev/d
Perigee alt
462.1 km
Apogee alt
463.2 km
Semi-major
6,840.8 km
B*
7.8247e-4
RAAN
27.3410°
Arg perigee
62.1615°
Mean anomaly
297.9469°
Rev number
4,963

§ Raw data

STARLINK-356791 66408U 25257AE  26263.57043543  .00026165  00000+0  78247-3 0  99952 66408  53.1593  27.3410 0000808  62.1615 297.9469 15.34413889 49630

JSON: /api/v1/satellites/66408 · /tle

For live sub-satellite position, see the globe view (requires WebGL).

§ Visibility from observer

Set your observer location to see the next 7 days of passes ≥ 10°. The values pass through the URL so the page stays shareable.

No JS? Fill the form by hand. The geolocation button needs JavaScript.